Regional Weather Roundup
Issued by NWS

Home | Current Version | Previous Version | Graphics & Text | Print | Product List | Glossary On
Versions: 1 2 3 4 5 6 7 8 9 10 11 12 13 14 15 16 17 18 19 20 21 22 23 24 25 26 27 28 29 30 31 32 33 34 35 36 37 38 39 40 41 42 43 44 45 46 47 48 49 50
000
ASUS43 KLMK 250510
RWRKY
KENTUCKY REGIONAL WEATHER ROUNDUP
NATIONAL WEATHER SERVICE LOUISVILLE KY
100 AM EDT MON JUL 25 2016

NOTE "FAIR" INDICATES FEW OR NO CLOUDS BELOW 12,000 FEET
WITH NO SIGNIFICANT WEATHER AND/OR OBSTRUCTIONS TO VISIBILITY.

KYZ001>023-026-027-061>063-070>075-250600-
WESTERN AND SOUTH CENTRAL KENTUCKY

CITY           SKY/WX    TMP DP  RH WIND       PRES   REMARKS
PADUCAH        PTCLDY    80  76  87 CALM      29.94F
HENDERSON      CLEAR     79  73  83 CALM      29.95R
OWENSBORO      CLEAR     82  78  88 CALM      29.97R HX  91
HOPKINSVILLE   CLOUDY    82  75  81 S5        29.96F
BOWLING GREEN  CLEAR     83  76  79 S5        29.97F HX  91
GLASGOW        PTCLDY    80  74  82 CALM      29.98F
$$

KYZ024-025-028>034-038-045-046-053-250600-
NORTH CENTRAL KENTUCKY

CITY           SKY/WX    TMP DP  RH WIND       PRES   REMARKS
LOUISVILLE/SDF PTCLDY    84  74  71 SW5       29.96S HX  91
LOUISVILLE/LOU CLEAR     84  75  74 CALM      29.97S HX  92
FORT KNOX      CLEAR     77  76  94 SW3       29.97R
$$

KYZ035>037-039>044-047>052-055>060-089>105-250600-
NORTHEAST KENTUCKY

CITY           SKY/WX    TMP DP  RH WIND       PRES   REMARKS
LEXINGTON      CLEAR     79  73  82 S6        30.00F
COVINGTON      PTCLDY    81  76  84 W3        30.00R
FRANKFORT      CLEAR     80  74  81 CALM      29.98S
$$

KYZ054-064>069-076>088-106>120-250600-
SOUTHEAST KENTUCKY

CITY           SKY/WX    TMP DP  RH WIND       PRES   REMARKS
JACKSON        CLOUDY    80  75  84 SE3       30.03F
LONDON         CLOUDY    76  72  87 CALM      30.03F
SOMERSET       CLEAR     75  75 100 CALM      30.02F
MIDDLESBORO    PTCLDY    76  74  95 CALM      30.06S
MONTICELLO     CLEAR    N/A N/A N/A W10       30.03F
$$




USA.gov is the U.S. government's official web portal to all federal, state and local government web resources and services.